Location: Siratepeler Tepesi
(39.1042°N, 32.0781°E)
Time: 00:10:36
(UTC+00:00)

Cosmos 1844 Rocket - Pass Details

Date: 11 April 2026
Orbit: 825 x 842 km, 71.0° (Epoch: 11 May)

Event Time Altitude Azimuth Distance (km) Brightness Sun altitude
Rises 16:52:55 0° 337° (NNW) 3,374 6.5 -6.1°
Reaches altitude 10° 16:55:21 10° 337° (NNW) 2,435 5.7 -6.5°
Maximum altitude 17:00:57 89° 250° (WSW) 830 2.7 -7.6°
Drops below altitude 10° 17:06:29 10° 160° (SSE) 2,416 4.7 -8.6°
Sets 17:08:54 0° 160° (SSE) 3,345 5.4 -9.0°
